www.pogodaiklimat.ru

Погода и климат >> Архив погоды >> Россия >> Якутия >> Батагай


ПОГОДА в Батагае

  • Прогноз погоды в Батагае
  • Монитор погоды в Батагае

АРХИВ ПОГОДЫ в Батагае

Время (UTC), дата Ветер
(напр.,м/с)
 
Видим.   Явления Облачность Т
(С)
Тd
(С)
f
(%)
Тe
(С)
Тes
(С)
Комфортность P
(гПа)
Po
(гПа)
Тmin
(С)
Tmax
(С)
R
(мм)
R24
(мм)
S
(см)
06 9.01 штиль 0 50 км 6/0
[Ci fib]
-46.5 -50.2 66 -47 -47 опасность
обморожения
1017.7 985.4
09 9.01 ЮВ 1 50 км 3/0
[Ci fib]
-46.3 -49.2 72 -52 -52 опасность
обморожения
1017.3 985.1 -46.0
12 9.01 штиль 0 50 км 3/0
[Ci fib]
-44.5 -47.6 71 -45 -45 опасность
обморожения
1017.7 985.6
15 9.01 штиль 0 50 км ясно -45.0 -48.4 68 -45 -45 опасность
обморожения
1017.8 985.7
18 9.01 ЮЗ 1 50 км ясно -44.6 -47.6 72 -50 -50 опасность
обморожения
1018.1 986.0
21 9.01 штиль 0 50 км ясно -44.8 -48.4 67 -45 -45 опасность
обморожения
1018.7 986.6 -46.8 14
00 10.01 штиль 0 10 км слаб. снег 10/0
[Cs]
-41.4 -45.0 68 -41 -41 опасность
обморожения
1018.4 986.9
03 10.01 штиль 0 4000 м слаб. снег 10/0
[Cs]
-39.6 -42.9 71 -40 -40 опасность
обморожения
1018.5 987.1
06 10.01 штиль 0 4000 м слаб. снег 10/0
[Ac trans Cs]
-38.4 -41.4 73 -38 -38 опасность
обморожения
1018.0 986.9
09 10.01 штиль 0 20 км слаб. снег 10/0
[Ac trans Cs]
-37.8 -40.5 76 -38 -38 опасность
обморожения
1018.4 987.3 -37.8 0.2
12 10.01 штиль 0 10 км слаб. снег 10/0
[As op]
-37.1 -40.1 73 -37 -37 опасность
обморожения
1017.8 986.8
15 10.01 штиль 0 20 км слаб. снег 10/0
[As op]
-35.7 -38.7 74 -36 -36 опасность
обморожения
1017.2 986.4
18 10.01 В 1 20 км слаб. снег 10/0
[Ac trans Cs]
-34.7 -37.7 74 -39 -39 опасность
обморожения
1017.0 986.3
21 10.01 ЮВ 1 20 км слаб. снег 10/0
[Ac trans Cs]
-35.1 -38.0 75 -40 -40 опасность
обморожения
1017.0 986.3 -38.0 0.3 15
00 11.01 штиль 0 20 км слаб. снег 10/0
[Ac trans Cs]
-36.7 -39.4 76 -37 -37 опасность
обморожения
1017.8 986.8
03 11.01 штиль 0 20 км слаб. снег 10/0
[Ac trans Cs]
-35.4 -38.4 74 -35 -35 опасность
обморожения
1017.7 987.0
06 11.01 ЮЗ 1 50 км слаб. снег 10/0
[Ac trans Cs]
-35.4 -38.4 74 -40 -40 опасность
обморожения
1018.9 988.1
09 11.01 ЮЗ 1 50 км {снег} 8/0
[Ci fib]
-37.6 -40.5 74 -43 -43 опасность
обморожения
1020.4 989.1 -34.9 0.2
12 11.01 Ю 1 50 км {снег} 4/0
[Ci fib]
-40.4 -43.3 73 -46 -46 опасность
обморожения
1021.9 990.4
15 11.01 ЮЗ 2 50 км 3/0
[Ci fib]
-41.5 -44.4 73 -51 -51 опасность
обморожения
1023.0 991.2
18 11.01 ЮЗ 1 50 км 3/0
[Ci fib]
-43.8 -46.9 71 -49 -49 опасность
обморожения
1024.2 992.1
21 11.01 Ю 1 50 км 3/0
[Ci fib]
-44.5 -47.6 71 -50 -50 опасность
обморожения
1025.7 993.3 -44.8 15
00 12.01 Ю 1 50 км 1/0
[Ci fib]
-44.9 -48.4 68 -51 -51 опасность
обморожения
1026.6 994.2 -44.9
03 12.01 ЮЗ 1 50 км 8/0
[Ci fib]
-44.5 -47.6 71 -50 -50 опасность
обморожения
1027.2 994.8
06 12.01 ЮЗ 1 50 км 8/0
[Ci fib]
-44.0 -47.6 67 -50 -50 опасность
обморожения
1028.5 996.3
09 12.01 Ю 1 50 км 4/0
[Ci fib]
-44.5 -47.6 71 -50 -50 опасность
обморожения
1030.2 997.7 -44.0
12 12.01 Ю 1 50 км 1/0
[Ci fib]
-44.5 -47.6 71 -50 -50 опасность
обморожения
1031.4 998.9
15 12.01 штиль 0 50 км ясно -45.5 -48.4 72 -46 -46 опасность
обморожения
1032.3 999.6
18 12.01 штиль 0 50 км ясно -47.0 -50.2 69 -47 -47 опасность
обморожения
1034.1 1001.3
21 12.01 штиль 0 50 км ясно -47.0 -50.2 69 -47 -47 опасность
обморожения
1035.8 1002.8 -48.1 15
00 13.01 штиль 0 50 км ясно -47.6 -51.2 66 -48 -48 опасность
обморожения
1037.4 1004.3
03 13.01 штиль 0 50 км слаб. снег 10/0
[Cs]
-46.7 -50.2 67 -47 -47 опасность
обморожения
1038.5 1005.5
06 13.01 штиль 0 50 км {снег} 3/0
[Ci fib]
-48.6 -52.4 64 -49 -49 опасность
обморожения
1039.9 1006.6
09 13.01 штиль 0 50 км ясно -49.8 -52.4 74 -50 -50 опасность
обморожения
1040.8 1007.4 -46.7 0.0
12 13.01 штиль 0 50 км ясно -49.7 -52.4 73 -50 -50 опасность
обморожения
1041.3 1007.7
15 13.01 штиль 0 50 км ясно -50.1 -53.7 65 -50 -50 опасность
обморожения
1041.3 1007.7
18 13.01 штиль 0 50 км ясно -50.7 -53.7 70 -51 -51 опасность
обморожения
1041.3 1007.5
21 13.01 штиль 0 50 км ясно -50.8 -53.7 71 -51 -51 опасность
обморожения
1040.8 1007.2 -51.2 15
00 14.01 штиль 0 50 км ясно -51.7 -55.2 66 -52 -52 опасность
обморожения
1041.0 1007.2 -51.7
03 14.01 Ю 1 50 км 1/0
[Ci fib]
-51.4 -55.2 64 -58 -58 опасность
обморожения
1040.1 1006.5
06 14.01 штиль 0 50 км 1/0
[Ci fib]
-52.2 -55.2 70 -52 -52 опасность
обморожения
1040.1 1006.3
09 14.01 штиль 0 50 км 1/0
[Ci fib]
-52.2 -55.2 70 -52 -52 опасность
обморожения
1040.1 1006.3
12 14.01 штиль 0 50 км ледяные иглы ясно -53.1 -57.0 62 -53 -53 опасность
обморожения
1039.5 1005.6
15 14.01 штиль 0 50 км ледяные иглы ясно -53.0 -55.2 77 -53 -53 опасность
обморожения
1038.9 1005.0
18 14.01 ЮЗ 1 50 км ледяные иглы ясно -52.8 -55.2 75 -59 -59 опасность
обморожения
1038.1 1004.2
21 14.01 штиль 0 50 км ледяные иглы 3/0
[Ci fib]
-53.8 -57.0 68 -54 -54 опасность
обморожения
1038.3 1004.2 -54.0 15
00 15.01 штиль 0 50 км 3/0
[Ci fib]
-53.2 -57.0 63 -53 -53 опасность
обморожения
1038.1 1004.2
06 15.01 штиль 0 50 км 1/0
[Ci fib]
-53.5 -57.0 65 -54 -54 опасность
обморожения
1038.2 1004.1
09 15.01 штиль 0 50 км ледяные иглы 3/0
[Ci fib]
-53.3 -57.0 64 -53 -53 опасность
обморожения
1038.7 1004.8 -53.2
12 15.01 штиль 0 50 км ледяные иглы 3/0
[Ci fib]
-53.3 -57.0 64 -53 -53 опасность
обморожения
1038.7 1004.8 -53.2
15 15.01 штиль 0 50 км ледяные иглы 3/0
[Ci fib]
-54.1 -57.0 70 -54 -54 опасность
обморожения
1039.3 1005.2
18 15.01 штиль 0 50 км ледяные иглы 3/0
[Ci fib]
-54.0 -57.0 69 -54 -54 опасность
обморожения
1038.9 1004.8
21 15.01 ЮЗ 1 50 км ледяные иглы 3/0
[Ci fib]
-53.4 -57.0 64 -60 -60 опасность
обморожения
1038.6 1004.7 -54.6 15
00 16.01 штиль 0 50 км ясно -52.9 -55.2 76 -53 -53 опасность
обморожения
1039.4 1005.5

 

Местоположение метеостанции Батагай (Якутия, Россия): широта 67.65 долгота 134.60 высота над уровнем моря 214 м.

В архиве по умолчанию представлена погода в Батагае за последнюю неделю. Архивные данные за месяц целиком и за предыдущие месяцы, начиная с января 2011 года, Вы можете получить, выбрав интересующий диапазон дат из раскрывающегося списка и нажав кнопку "Ввод!".


*Определитесь, кто Вы:
робот инопланетянин человек

Внимание! Время в таблицах - всемирное. Для получения местного времени необходимо прибавить поправку, которая равна 10 ч.

Смотрите также архив погоды в соседних городах и на ближайших метеорологических станциях:

Погода в Верхоянске (Якутия, Россия) (52 км)
Погода в Усть-Чарках (Якутия, Россия) (128 км)
Погода в Екюччю (Якутия, Россия) (162 км)
Погода в Батагай-Алыте (Якутия, Россия) (178 км)
Погода в Усть-Куйге (Якутия, Россия) (264 км)
Погода в Иэме (Якутия, Россия) (267 км)
Погода в Депутатском (Якутия, Россия) (286 км)
Погода в Себян-Кюеле (Якутия, Россия) (332 км)
Погода в Юбилейной (Якутия, Россия) (353 км)
Погода в Усть-Моме (Якутия, Россия) (396 км)

Пояснения к столбцам:

Ветер - указаны скорость ветра в м/с - средняя за 10 мин, порывы в срок и между сроками (в фигурных скобках) и направление, откуда дует ветер: С - северный, СВ - северо-восточный, В - восточный, ЮВ - юго-восточный, Ю - южный, ЮЗ - юго-западный, З - западный, СЗ - северо-западный.
Видимость - горизонтальная дальность видимости в метрах или километрах. При видимости от 1 до 10 км при отсутствии осадков обычно наблюдается дымка, при ухудшении видимости до 1 км и менее - туман. В сухую погоду видимость может ухудшаться дымом, пылью или мглою.
Явления - указаны атмосферные явления, наблюдавшиеся в срок или в последний час перед сроком; фигурными скобками обозначены явления, наблюдавшиеся между сроками (за 1-3 часа до срока); квадратными скобками обозначены град или гололедные отложения с указанием их диаметра в мм.
Облачность - указаны через наклонную черту общая и нижняя облачность в баллах и высота нижней границы облаков в метрах; квадратными скобками обозначены формы облаков: Ci - перистые, Cs - перисто-слоистые, Cc - перисто-кучевые, Ac - высококучевые, As - высокослоистые, Sc - слоисто-кучевые, Ns - слоисто-дождевые, Cu - кучевые, Cb - кучево-дождевые. Подробнее классификацию облаков см. в Атласе облаков (PDF).
T - Температура воздуха - температура, измеренная на высоте 2 м над землей.
Td - Температура точки росы - температура, при понижении до которой содержащийся в воздухе водяной пар достигнет насыщения.
f - Относительная влажность воздуха - влажноcть воздуха, измеренная на высоте 2 м над землей.
Te - Эффективная температура - температура, которую ощущает одетый по сезону человек в тени. Характеристика душности погоды. При расчете учитывается влияние влажности воздуха и скорости ветра на теплоощущения человека.
Tes - Эффективная температура на солнце - температура, которую ощущает человек, с поправкой на солнечный нагрев. Характеристика знойности погоды. Зависит от высоты солнца над горизонтом, облачности и скорости ветра. Ночью, в пасмурную погоду, а также при ветре 12 м/с и более поправка равна нулю.
P - Атмосферное давление - приведенное к уровню моря атмосферное давление.
Po - Атмосферное давление - измеренное на уровне метеостанции атмосферное давление.
Tmin - Минимальная температура - минимум температуры воздуха на высоте 2 м над землей.
Tmax - Максимальная температура - максимум температуры воздуха на высоте 2 м над землей.
R - Количество осадков - Количество выпавших осадков за период времени, мм. При наведении курсора мыши на число - период времени, за который выпало указанное количество осадков.
R24 - Количество осадков - Количество выпавших осадков за 24 часа, мм.
S - Снежный покров - Высота снежного покрова, см. При наведении курсора мыши на число - состояние снежного покрова и степень покрытия местности в баллах.